STARLINK-36789, 68118

Orbit data source: Space-Track

STARLINK-36789, 68118 is a payload satellite owned by SpaceX/Seattle (US) in SSO that was launched on Sun, 08 Mar 2026 UTC via an FALCON 9 launch vehicle from the Air Force Western Test Range (AFWTR). Payload-class satellites include a variety of spacecraft equipped with specific instruments for various scientific and technological missions. These include communications satellites like Starlink; space stations such as the ISS; scientific satellites like the Hubble; Earth observation satellites from companies like Planet Labs, Umbra, and HawkEye 360; GPS; miniature CubeSats for education and research; and military/defense satellites.

Loading next visibility...
Identifier
68118, 2026-044T
Orbit
SSO
Country
Flag of USUS
Related business
Manufacturer
SpaceX/Seattle
Mission
Operational Commercial Communications
Bus & Motor
STARLINK V2MO, Unknown motor
Mass
575 kg wet, ~530 kg dry
Launch date (UTC)
2026-03-08 (6 months ago)
Launch vehicle
FALCON 9
Launch site
Air Force Western Test Range (AFWTR)
Object type
Payload
Rocket body
Debris
Shape & HBR
Box + 1 Pan, 17.7 m
Radar Cross Section
41.120 m², Large (>1 m²)

Expand to show TLE details & history
Last TLE update: 17 hours ago

TLE from 17 hours ago
0 STARLINK-36789
1 68118U 26044T   26246.69037861  .00012434  00000-0  38666-3 0  9996
2 68118  97.2858 205.9082 0001593  97.0063 263.1361 15.33458767 28869
Epoch: 2026-09-03T16:34Z
TLE epoch observation values (Epoch: 2026-09-03T16:34:08.711Z)
Latitude
-0.00005°
Longitude
-25.45302°
Altitude
468.745 km
Speed
7.632 km/s
True Right ascension
13h 43m 37s
True Declination
0° 00' 00"
Sunlit
Object was in daylight at epoch
Visualization orbit readout
Latitude
Unknown
Longitude
Unknown
Altitude
Unknown
Speed
Unknown
Apparent Right ascension
Unknown
Apparent Declination
Unknown
Sunlit
N/A
Visualization observer readout
Local Sidereal Time
01:56:48
Azimuth
Unknown
Elevation
Unknown
Doppler factor
Unknown
Orbital elements
Apogee altitude
463.535 km
Perigee altitude
461.355 km
Semi-major axis
6,840.582 km
Eccentricity
0.00016
Inclination
97.2858°
RAAN
205.9082°
Arg. of periapsis
97.0063°
True anomaly
263.11798°
Mean anomaly
263.1361°
Eccentric anomaly
263.12704°
Mean motion
3.83622 °/min
Orbital period
93.84 mins
BSTAR
0.00038666
Loading maneuver chart data...
Computing Atmospheric mass density...
Loading historical data...
Loading historical data...
Loading historical data...
Loading historical data...
Loading historical data...
Loading historical data...
Loading historical data...

Documentation

Showing up to 5 results
|